• Join FlightAware (Why Join?)
  • Login
  • US Flag GB Flag 
19:22 EST


 

Airport Tracker/Info


-or-


 

Live Flight TrackerFlight Track Log ✈ N75ZM ✈ 01-Jan-2014 ✈ KCRG - KPDK

Flight Track Log - Related Links

Times and Time Zones

All times are in EST time to prevent confusion due to time zone crossing. See the N75ZM flight status page for this flight to view local times or setup timezone preferences in your user account.

Time Position Orientation Groundspeed Altitude Reporting Facility
EST Latitude Longitude Course Direction KTS MPH feet Rate Location/Type
11:49 30.3364 -81.5136 North 83 96 400  Level Jacksonville Center
11:50 30.3697 -81.5106 North 123 142 1,500 900 Climbing Jacksonville Center
11:52 30.4053 -81.5150 354° North 133 153 2,400 780 Climbing Jacksonville Center
11:53 30.4450 -81.5192 355° North 151 174 3,100 660 Climbing Jacksonville Center
11:54 30.4828 -81.5428 332° Northwest 147 169 3,800 540 Climbing Jacksonville Center
11:55 30.5206 -81.5686 330° Northwest 154 177 4,300 480 Climbing Jacksonville Center
11:56 30.5583 -81.5900 334° Northwest 151 174 4,800 480 Climbing Jacksonville Center
11:57 30.5961 -81.6136 332° Northwest 151 174 5,300 480 Climbing Jacksonville Center
11:58 30.6361 -81.6372 333° Northwest 153 176 5,800 480 Climbing Jacksonville Center
11:59 30.6761 -81.6583 336° Northwest 153 176 6,300 420 Climbing Jacksonville Center
12:00 30.7139 -81.6819 332° Northwest 148 170 6,800 300 Climbing Jacksonville Center
12:01 30.7411 -81.6986 332° Northwest 149 171 6,900 60 Climbing Jacksonville Center
12:01 30.7475 -81.7033 328° Northwest 150 173 6,900  Level Jacksonville Center
12:02 30.7811 -81.7272 329° Northwest 163 188 6,900  Level Jacksonville Center
12:02 30.7853 -81.7269 North 166 191 6,900  Level Jacksonville Center
12:03 30.8314 -81.7556 332° Northwest 167 192 6,900  Level Jacksonville Center
12:04 30.8608 -81.7769 328° Northwest 163 188 6,900  Level Jacksonville Center
12:05 30.8986 -81.8008 332° Northwest 173 199 6,900  Level Jacksonville Center
12:06 30.9386 -81.8219 336° Northwest 167 192 6,900  Level Jacksonville Center
12:07 30.9764 -81.8458 332° Northwest 162 186 6,900  Level Jacksonville Center
12:08 31.0183 -81.8719 332° Northwest 162 186 6,900  Level Jacksonville Center
12:09 31.0561 -81.8958 332° Northwest 162 186 6,900  Level Jacksonville Center
12:10 31.1022 -81.9219 334° Northwest 168 193 6,900  Level Jacksonville Center
12:11 31.1442 -81.9458 334° Northwest 168 193 6,900  Level Jacksonville Center
12:12 31.1839 -81.9697 333° Northwest 163 188 6,900 -180 Level Jacksonville Center
12:13 31.2217 -81.9936 332° Northwest 163 188 6,600 -360 Descending Jacksonville Center
12:14 31.2678 -82.0225 332° Northwest 168 193 6,200 -360 Descending Jacksonville Center
12:15 31.3119 -82.0511 331° Northwest 168 193 5,900 -180 Descending Jacksonville Center
12:16 31.3517 -82.0775 330° Northwest 168 193 5,900  Level Jacksonville Center
12:17 31.3917 -82.1017 333° Northwest 158 182 5,900  Level Jacksonville Center
12:18 31.4292 -82.1208 336° Northwest 158 182 5,900  Level Jacksonville Center
12:19 31.4692 -82.1447 333° Northwest 158 182 5,900  Level Jacksonville Center
12:20 31.5131 -82.1736 331° Northwest 158 182 5,900  Level Jacksonville Center
12:21 31.5508 -82.1978 331° Northwest 164 189 5,900  Level Jacksonville Center
12:22 31.5906 -82.2219 333° Northwest 164 189 5,900  Level Jacksonville Center
12:23 31.6283 -82.2436 334° Northwest 164 189 5,900  Level Jacksonville Center
12:24 31.6681 -82.2700 331° Northwest 164 189 5,900  Level Jacksonville Center
12:25 31.7100 -82.2942 334° Northwest 164 189 5,900  Level Jacksonville Center
12:26 31.7519 -82.3208 332° Northwest 164 189 5,900  Level Jacksonville Center
12:27 31.7875 -82.3450 330° Northwest 164 189 5,900  Level Jacksonville Center
12:28 31.8294 -82.3717 332° Northwest 164 189 5,900  Level Jacksonville Center
12:29 31.8650 -82.3936 332° Northwest 164 189 5,900  Level Jacksonville Center
12:30 31.9047 -82.4178 333° Northwest 164 189 5,900  Level Jacksonville Center
12:31 31.9444 -82.4444 330° Northwest 164 189 5,900  Level Jacksonville Center
12:32 31.9864 -82.4689 334° Northwest 164 189 5,900  Level Jacksonville Center
12:33 32.0219 -82.4931 330° Northwest 164 189 5,900  Level Jacksonville Center
12:34 32.0617 -82.5175 332° Northwest 159 183 5,900  Level Jacksonville Center
12:35 32.0992 -82.5419 331° Northwest 159 183 5,900  Level Jacksonville Center
12:36 32.1389 -82.5664 332° Northwest 159 183 5,900  Level Jacksonville Center
12:37 32.1767 -82.5906 332° Northwest 164 189 6,000  Climbing Jacksonville Center
12:38 32.2164 -82.6150 332° Northwest 164 189 6,000  Level Jacksonville Center
12:39 32.2833 -82.6500 336° Northwest 160 184 6,000  Level Atlanta TRACON
12:40 32.3333 -82.6833 331° Northwest 161 185 6,000  Level Atlanta TRACON
12:41 32.3667 -82.7000 337° Northwest 159 183 6,000  Level Atlanta TRACON
12:42 32.4000 -82.7333 320° Northwest 157 181 6,000  Level Atlanta TRACON
12:43 32.4333 -82.7667 320° Northwest 160 184 6,000  Level Atlanta TRACON
12:44 32.4667 -82.8000 320° Northwest 165 190 6,000  Level Atlanta TRACON
12:45 32.5000 -82.8333 320° Northwest 161 185 6,000  Level Atlanta TRACON
12:46 32.5333 -82.8667 320° Northwest 163 188 6,000  Level Atlanta TRACON
12:47 32.5833 -82.9000 331° Northwest 164 189 6,000  Level Atlanta TRACON
12:48 32.6167 -82.9333 320° Northwest 166 191 6,000  Level Atlanta TRACON
12:49 32.6500 -82.9667 320° Northwest 166 191 6,000  Level Atlanta TRACON
12:50 32.6833 -83.0000 320° Northwest 168 193 6,000 -60 Level Atlanta TRACON
12:51 32.7167 -83.0333 320° Northwest 164 189 5,900 -60 Descending Atlanta TRACON
12:52 32.7500 -83.0667 320° Northwest 166 191 5,900  Level Atlanta TRACON
12:53 32.8000 -83.1000 331° Northwest 165 190 5,900  Level Atlanta TRACON
12:54 32.8333 -83.1333 320° Northwest 167 192 5,900  Level Atlanta TRACON
12:55 32.8667 -83.1667 320° Northwest 166 191 5,900  Level Atlanta TRACON
12:56 32.9000 -83.2000 320° Northwest 167 192 5,900  Level Atlanta TRACON
12:57 32.9333 -83.2333 320° Northwest 164 189 5,900  Level Atlanta TRACON
12:58 32.9667 -83.2667 320° Northwest 164 189 5,900  Level Atlanta TRACON
12:59 33.0167 -83.3000 331° Northwest 163 188 5,900  Level Atlanta TRACON
13:00 33.0500 -83.3333 320° Northwest 164 189 5,900  Level Atlanta TRACON
13:01 33.0833 -83.3667 320° Northwest 162 186 5,900  Level Atlanta TRACON
13:02 33.1167 -83.4000 320° Northwest 162 186 5,900  Level Atlanta TRACON
13:03 33.1500 -83.4333 320° Northwest 159 183 5,900  Level Atlanta TRACON
13:04 33.1833 -83.4667 320° Northwest 171 197 5,900  Level Atlanta TRACON
13:05 33.2167 -83.5000 320° Northwest 161 185 5,900  Level Atlanta TRACON
13:06 33.2500 -83.5333 320° Northwest 166 191 5,900  Level Atlanta TRACON
13:07 33.2833 -83.5667 320° Northwest 162 186 5,900  Level Atlanta TRACON
13:08 33.3333 -83.6000 331° Northwest 163 188 5,900  Level Atlanta TRACON
13:09 33.3667 -83.6333 320° Northwest 162 186 5,900  Level Atlanta TRACON
13:10 33.4000 -83.6667 320° Northwest 162 186 5,900  Level Atlanta TRACON
13:11 33.4333 -83.7000 320° Northwest 167 192 5,900 -300 Level Atlanta TRACON
13:12 33.4667 -83.7333 320° Northwest 188 216 5,400 -540 Descending Atlanta TRACON
13:13 33.5167 -83.7667 331° Northwest 194 223 4,900 -540 Descending Atlanta TRACON
13:14 33.5667 -83.8000 331° Northwest 196 226 4,400 -540 Descending Atlanta TRACON
13:15 33.6167 -83.8167 344° North 194 223 3,900 -300 Descending Atlanta TRACON
13:16 33.6667 -83.8333 344° North 182 209 3,900  Level Atlanta TRACON
13:17 33.7167 -83.8333 360° North 181 208 3,900  Level Atlanta TRACON
13:18 33.7667 -83.8500 345° North 181 208 3,900  Level Atlanta TRACON
13:19 33.8000 -83.9000 309° West 168 193 3,900  Level Atlanta TRACON
13:20 33.7833 -83.9500 248° West 161 185 3,900  Level Atlanta TRACON
13:21 33.7833 -84.0000 270° West 159 183 3,900  Level Atlanta TRACON
13:22 33.7667 -84.0500 248° West 158 182 3,900 -300 Level Atlanta TRACON
13:23 33.7667 -84.1000 270° West 177 204 3,300 -540 Descending Atlanta TRACON
13:24 33.7833 -84.1500 292° West 176 203 2,900 -480 Descending Atlanta TRACON
13:25 33.8000 -84.2167 287° West 184 212 2,400 -360 Descending Atlanta TRACON
13:26 33.8333 -84.2500 320° Northwest 138 159 2,200 -300 Descending Atlanta TRACON
13:27 33.8333 -84.2833 270° West 118 136 1,900 -300 Descending Atlanta TRACON
13:29 33.8667 -84.3000 287° West  Level FlightAware Approximate
13:36 33.8756 -84.3020 287° West  Level Estimated
13:37 33.8756 -84.3020 287° West  Level Estimated